Regional Weather Roundup
Issued by NWS

Home | Current Version | Previous Version | Graphics & Text | Print | Product List | Glossary On
Versions: 1 2 3 4 5 6 7 8 9 10 11 12 13 14 15 16 17 18 19 20 21 22 23 24 25 26 27 28 29 30 31 32 33 34 35 36 37 38 39 40 41 42 43 44 45 46 47 48 49 50
000
ASUS43 KFSD 190910
RWRSD

WEATHER ROUNDUP FOR SOUTH DAKOTA
NATIONAL WEATHER SERVICE SIOUX FALLS SD
300 AM CST FRI DEC 19 2014

NOTE: "FAIR" INDICATES FEW OR NO CLOUDS BELOW 12,000 FEET WITH NO
SIGNIFICANT WEATHER AND/OR OBSTRUCTIONS TO VISIBILITY.


SDZ001>005-009-010-012>017-191000-
NORTHWEST AND NORTH CENTRAL SOUTH DAKOTA

CITY           SKY/WX    TMP DP  RH WIND       PRES   REMARKS
BUFFALO          N/A     28  21  75 W10       29.88S WCI  19
FAITH            N/A     25  21  85 SW10      29.97S WCI  15
MOBRIDGE       CLEAR     22  19  89 SE8       29.99R WCI  12
$$

SDZ012>016-024>037-041>051-057-063-072>074-191000-
SOUTHWEST AND SOUTH CENTRAL SOUTH DAKOTA

CITY           SKY/WX    TMP DP  RH WIND       PRES   REMARKS
RAPID CTY ARPT CLEAR     24  16  71 NW3       29.99R
PIERRE         FOG       13  10  88 CALM      30.04S VSB 1/4
CUSTER         CLEAR     25  13  60 NW5       29.97F WCI  19
ELLSWORTH AFB  CLEAR     24  17  73 W6        29.98S WCI  17
PHILIP         CLEAR     15  10  80 W5        30.02S WCI   8
PINE RIDGE     CLEAR     28  18  66 W6        30.03S WCI  22
SPEARFISH      FAIR      32  18  55 W5        29.98S WCI  27
WINNER         FAIR      20  15  81 E3        30.05S
$$

SDZ004>011-016>023-039-040-191000-
NORTHEAST SOUTH DAKOTA

CITY           SKY/WX    TMP DP  RH WIND       PRES   REMARKS
ABERDEEN       CLOUDY    28  24  85 S12       30.09F WCI  18
WATERTOWN      CLOUDY    26  24  92 S8        30.11S FOG     WCI  18
SISSETON         N/A     24  23  96 S12       30.13  WCI  13
$$

SDZ017-020-022-023-036>040-048>070-191000-
SOUTHEAST SOUTH DAKOTA

CITY           SKY/WX    TMP DP  RH WIND       PRES   REMARKS
SIOUX FALLS    CLOUDY    28  25  88 S9        30.16F WCI  19
HURON          CLOUDY    28  25  88 S12       30.11S WCI  18
CHAMBERLAIN    CLEAR     18  17  95 SE3       30.07S FOG
MITCHELL       CLOUDY    29  26  89 S9        30.13F WCI  20
YANKTON        CLOUDY    28  25  86 S8        30.18F WCI  20
$$

ABBREVIATIONS USED IN REMARKS
   TC - TEMPERATURE IN CELSIUS
  WCI - WIND CHILL INDEX
   HX - HEAT INDEX
  VSB - VISIBILITY




USA.gov is the U.S. government's official web portal to all federal, state and local government web resources and services.